SENTINEL-6B

Satellite information

Favourite Embed

Satellite Type and Status

PAYLOADIN ORBIT

Key statistics

Satellite SENTINEL-6B at a glance.

Uptime

30

Days in orbit

Revolutions

≈ 12.8

Per day

Orbit

LEO

Low Earth Orbit

Inclination

66.0

Latest

Satellite identification and parameters

Extended collection of information and parameters for SENTINEL-6B.

Object identification

Identified? True

Debris? False

Object name: SENTINEL-6B

International designator: 2025-264A

Object number (NORAD): 66514

Object ID (CCSDS): 66514

Country: EUROPEAN SPACE AGENCY (ESA)

Current information (Y/N): Y

Orbital parameters

Period: 112.37 minutes

Inclination: 66.0385 deg

SMA: 7713.664 km

Apoapsis: 1341.582 km

Periapsis: 1329.476 km

RAAN: 163.4531 deg

Eccentricy: 0.0007847

Argument of periapsis: 270.1745 deg

Mean anomaly: 89.8371 deg

Mean motion: 12.81479576 rev/day

Mean motion (dot): -0.00000017 rev/day2

B* drag term: 0.00018864317 1/REarth

Two-line elements (TLE)

Creation date: Dec. 15, 2025, 8:47 p.m.

Reference frame: TEME

Reference center: EARTH

Epoch: Dec. 12, 2025, 6:01 a.m. UTC

TLE line 0: 0 SENTINEL-6B

TLE line 1: 1 66514U 25264A 25346.25094248 -.00000017 00000-0 18864-3 0 9994

TLE line 2: 2 66514 66.0385 163.4531 0007847 270.1745 89.8371 12.81479576 3220

Live tracking on map

Real-time ground track for satellite SENTINEL-6B.

In-orbit conjunctions

There are no conjunctions computed for SENTINEL-6B, at the moment. Check back to stay up to date, as we update our databases every day.

Go to all conjunctions

Associated space launch

The Sentinel-6 Michael Freilich (launched November 2020) and Sentinel-6B make up the Sentinel-6 mission, also known as Jason Continuity of Service (Jason-CS), which is a partnership between NASA, NOAA, ESA, and EUMETSAT. This mission continues the long-term global sea surface height data record begun by first Jason satellites in 1992.

SENTINEL-6B was lifted into orbit during the mission ‘Falcon 9 Block 5 | Sentinel-6B’, on board a Falcon 9 space rocket.

The launch took place on Nov. 17, 2025, 5:21 a.m. from Space Launch Complex 4E.

For more information about the launch, click the button.

Launch to space Falcon 9 Block 5 | Sentinel-6B
Falcon 9 Block 5 | Sentinel-6B

Agency: National Aeronautics and Space Administration

Status: Launch Successful

Launch date: Nov. 17, 2025, 5:21 a.m. UTC

Rocket: Falcon 9

Launch pad: Space Launch Complex 4E

Location: Vandenberg SFB, CA, USA

...

Latest news about this satellite

News about space launch
6 Things to Know From NASA About New US, European Sea Satellite

Pasadena CA (JPL) Nov 15, 2025 Data from Sentinel-6B will continue a decades-long record of sea surface height, helping to improve coastal planning, protect critical infrastructure, and advance weather forecasts. With launch set for no earlier th...

News about space launch
Sentinel-6B launch highlights

Copernicus Sentinel-6B was launched on 17 November 2025, ready to continue a decades-long mission to track the height of the planet’s seas – a key measure of climate change. The satellite was carried into orbit on a Falcon 9 rocket from the Vandenberg Spa...

News about space launch
Copernicus Sentinel-6B begins mission to advance ocean science

Berlin, Germany (SPX) Nov 17, 2025 Copernicus Sentinel-6B launched today, 17 November, at 06:21 CET aboard a SpaceX Falcon 9 rocket from Vandenberg Space Force Base in California. The satellite was delivered into orbit just under an hour after liftoff,...


Newsletter sign-up

Weekly statistics, charts and insights to help you stay on top of the space industry.